Regional Weather Roundup
Issued by NWS

Home | Current Version | Previous Version | Graphics & Text | Print | Product List | Glossary On
Versions: 1 2 3 4 5 6 7 8 9 10 11 12 13 14 15 16 17 18 19 20 21 22 23 24 25 26 27 28 29 30 31 32 33 34 35 36 37 38 39 40 41 42 43 44 45 46 47 48 49 50
000
ASUS45 KTFX 010710
RWRMT
MONTANA REGIONAL WEATHER ROUNDUP
NATIONAL WEATHER SERVICE GREAT FALLS MT
100 AM MDT WED JUL 01 2015

NOTE: "FAIR" INDICATES FEW OR NO CLOUDS BELOW 12000 FEET WITH NO
SIGNIFICANT WEATHER AND/OR OBSTRUCTIONS TO VISIBILITY.

MTZ001>007-043-010800-
WEST OF THE DIVIDE

CITY           SKY/WX    TMP DP  RH WIND       PRES   REMARKS
KALISPELL      SUNNY     61  49  64 CALM      30.00R
MISSOULA       CLEAR     67  47  48 CALM      30.05R
BUTTE          CLEAR     60  46  59 SE5       30.18S
MULLAN PASS    CLEAR     65  42  43 VRB3      30.23R
DEER LODGE       N/A     61  46  59 W5        30.16R
EUREKA           N/A     68  52  56 CALM      29.99S
HAMILTON         N/A     66  52  59 S2        30.07R
PLAINS           N/A     65  49  56 CALM      30.02R
RONAN            N/A     60  53  77 CALM      30.07R
THOMPSON FALLS   N/A     63  48  57 CALM      30.05R
$$

MTZ008-052>055-010800-
SOUTHWEST MONTANA

CITY           SKY/WX    TMP DP  RH WIND       PRES   REMARKS
BOZEMAN        CLEAR     66  50  56 S8        30.10R
DILLON         PTCLDY    65  45  48 S9        30.15R
W YELLOWSTONE  PTCLDY    55  50  82 CALM      30.25S
THREE FORKS      N/A     62  62 100 CALM      30.07R
TWIN BRIDGES     N/A     70  44  38 NE1       30.11R
$$

MTZ009-010-012-014-046-048-049-054-010800-
EAST SLOPES AND CENTRAL MONTANA

CITY           SKY/WX    TMP DP  RH WIND       PRES   REMARKS
CUT BANK       PTCLDY    59  53  80 W5        30.08  HAZE
GREAT FALLS    CLEAR     67  52  58 E6        30.06R
MALMSTROM AFB  CLEAR     67  53  62 E1        30.05S
HELENA         CLEAR     75  46  35 W10       30.04R
CONRAD           N/A     57  57 100 N1        30.09R
$$

MTZ011-013-016-021-045-047-050-051-010800-
NORTH CENTRAL MONTANA

CITY           SKY/WX    TMP DP  RH WIND       PRES   REMARKS
HAVRE          CLEAR     64  54  69 CALM      29.99S HAZE
LEWISTOWN      CLEAR     62  51  67 S3        30.09
CHINOOK          N/A     63  55  77 W5        29.99R
FORT BENTON      N/A     66  54  63 CALM      30.03R
$$

MTZ017>020-022>027-061-062-010800-
NORTHEAST MONTANA

CITY           SKY/WX    TMP DP  RH WIND       PRES   REMARKS
JORDAN           N/A     65  56  72 NW8       29.94R
SIDNEY         PTCLDY    64  59  82 CALM      29.93R
WOLF POINT     CLEAR     64  59  83 E6        29.92S HAZE
MALTA            N/A     66  56  70 N5        29.92R
PLENTYWOOD       N/A     61  61 100 N10       29.96S
POPLAR           N/A     64  61  88 E3        29.92S
SCOBEY           N/A     58  53  83 NE5       29.96R
$$

MTZ028>42-056>058-010800-
SOUTHCENTRAL AND SOUTHEAST MONTANA

CITY           SKY/WX    TMP DP  RH WIND       PRES   REMARKS
BAKER          CLEAR     61  59  93 E7        29.93R
BILLINGS       PTCLDY    74  48  39 S3        30.06R
LIVINGSTON     CLEAR     70  47  43 SE10      30.10R
MILES CITY     CLEAR     72  53  51 N8        29.92R
EKALAKA          N/A     66  56  70 SE2       29.94R
FORSYTH          N/A     75  52  43 CALM      29.95R
LAUREL           N/A     70  45  40 CALM      30.04R
ROUNDUP          N/A     71  49  45 MISG      29.95R
$$

REGIONAL REPORTS...DAKOTAS

CITY           SKY/WX    TMP DP  RH WIND       PRES   REMARKS
WILLISTON      MOCLDY    63  60  90 N7        29.94R FOG
MINOT          PTCLDY    60  58  92 NW5       29.92R FOG
DICKINSON      CLOUDY    63  61  93 E12       29.90S FOG
BEACH          LGT RAIN  63  63 100 SE8       29.94R
CROSBY         FOG       59  59 100 NE3       29.96S VSB<1/4
BISMARCK       CLEAR     64  63  96 SE10      29.90S FOG
GRAND FORKS    MOCLDY    61  58  90 E3        29.92R
FARGO          CLOUDY    65  60  84 CALM      29.90F
BUFFALO SD       N/A     65  61  87 S7        29.86R
RAPID CITY     PTCLDY    68  66  93 CALM      29.93R
$$

REGIONAL REPORTS...WYOMING/IDAHO/WASHINGTON

CITY           SKY/WX    TMP DP  RH WIND       PRES   REMARKS
GILLETTE       CLEAR     61  54  77 CALM      30.04R
SHERIDAN       PTCLDY    67  48  50 N6        30.06R
BUFFALO WY     PTCLDY    66  48  52 NW8       30.12R
CODY           PTCLDY    70  48  46 CALM      30.13R
YELLOWSTONE LA   N/A     52  46  80 NW3       30.37R
IDAHO FALLS    PTCLDY    64  58  80 N3        30.09S
SALMON         CLEAR     72  48  43 E6        30.06S
BOISE          CLEAR     81  49  32 CALM      29.95R
SPOKANE        CLEAR     78  46  32 SW8       29.97S
$$

REGIONAL REPORTS...ALBERTA

CITY           SKY/WX    TMP DP  RH WIND       PRES   REMARKS
EDMONTON       CLOUDY    63  57  82 W3        29.98R
CALGARY        MOCLDY    63  55  77 W6        30.08S
LETHBRIDGE     MOCLDY    59  57  94 S8        30.04S FOG
MEDICINE HAT   CLEAR     61  54  77 N3        30.01S HAZE
WATERTON GATE    N/A     55  54  94 CALM        N/A
MILK RIVER       N/A     61  55  82 N5          N/A
ONEFOUR          N/A     59  52  77 NE8         N/A
$$

REGIONAL REPORTS...SASKATCHEWAN

CITY           SKY/WX    TMP DP  RH WIND       PRES   REMARKS
SWIFT CURRENT  CLEAR     59  57  94 E5        30.00F FOG
REGINA         PTCLDY    55  55 100 NW5       29.98R SMOKE
SASKATOON      CLEAR     59  59 100 SW7       29.96R
CYPRESS HILLS    N/A     55  52  88 NE2         N/A
VAL MARIE        N/A     57  54  88 N1          N/A
ROCKGLEN         N/A     57  57 100 N6          N/A
ASSINIBOIA       N/A     64  61  88 S3          N/A
$$


USA.gov is the U.S. government's official web portal to all federal, state and local government web resources and services.